contact:dominique.lefevre@mio.osupytheas.fr, maurice.libes@osupytheas.fr
Project:EMSO Ligure-ouest http://www.emso-fr.org/EMSO-France
Sensor Aquadopp, line 13 Serial AQD14315 
DOI : "https://doi.org/10.17882/74513; https://doi.org/10.17882/83244" 
Title:EMSO Ligure Ouest : Data ligne ALBATROSS capteur AQUADOPP - deploiement 2021
Id,Date,Profondeur,Latitude,Longitude,X_East,Y_North,Z_Up,Amplitude_X,Amplitude_Y,Amplitude_Z,Batterie,SoundSpeed,Heading,Pitch,Roll,Pressure,Temperature,Speed,Direction
, , m, degrees North, degrees East, m.s-1, m.s-1,m.s-1, 1, 1, 1, Volt, m.s-1, degree, degree, degree, dbar, degree_C, m.s-1, degree
07,2022-07-22T23:30:00,1500.0,42.79,6.0312,0.047,-0.017,-0.004,51.0,52.0,51.0,13.2,1504.1,325.7,-0.1,1.0,1475.173,13.12,0.049,109.9
07,2022-07-23T00:00:00,1500.0,42.79,6.0312,0.03,-0.026,-0.009,50.0,50.0,50.0,13.2,1504.1,333.2,0.3,0.7,1475.188,13.12,0.039,130.9
07,2022-07-23T00:30:00,1500.0,42.79,6.0312,0.027,-0.011,0.006,51.0,51.0,50.0,13.2,1504.1,328.9,0.1,0.9,1475.217,13.12,0.029,112.2
07,2022-07-23T01:00:00,1500.0,42.79,6.0312,0.022,-0.02,-0.005,51.0,53.0,52.0,13.2,1504.1,332.5,-0.4,1.2,1475.19,13.12,0.029,132.3
07,2022-07-23T01:30:00,1500.0,42.79,6.0312,0.036,-0.026,0.005,49.0,52.0,51.0,13.2,1504.1,323.7,0.1,1.0,1475.194,13.12,0.044,125.8
07,2022-07-23T02:00:00,1500.0,42.79,6.0312,0.024,-0.012,0.0,51.0,54.0,53.0,13.2,1504.1,323.4,-0.1,1.1,1475.203,13.12,0.026,116.6
07,2022-07-23T02:30:00,1500.0,42.79,6.0312,0.034,-0.033,-0.003,50.0,53.0,53.0,13.2,1504.1,334.3,0.4,0.8,1475.228,13.12,0.047,134.1
07,2022-07-23T03:00:00,1500.0,42.79,6.0312,0.035,-0.02,-0.001,51.0,52.0,51.0,13.2,1504.1,329.5,0.3,0.8,1475.21,13.12,0.04,119.7
07,2022-07-23T03:30:00,1500.0,42.79,6.0312,0.024,-0.02,0.007,51.0,53.0,52.0,13.2,1504.0,322.0,0.2,0.8,1475.225,13.11,0.031,129.8
07,2022-07-23T04:00:00,1500.0,42.79,6.0312,0.019,-0.016,0.005,53.0,53.0,54.0,13.2,1504.0,322.1,0.0,0.8,1475.243,13.11,0.024,130.1
07,2022-07-23T04:30:00,1500.0,42.79,6.0312,0.025,-0.019,-0.011,51.0,54.0,53.0,13.2,1504.0,325.3,0.0,1.1,1475.223,13.11,0.031,127.2
07,2022-07-23T05:00:00,1500.0,42.79,6.0312,0.027,-0.018,0.002,51.0,52.0,54.0,13.2,1504.0,331.3,0.1,0.9,1475.173,13.11,0.032,123.7
07,2022-07-23T05:30:00,1500.0,42.79,6.0312,0.014,-0.021,-0.005,53.0,52.0,54.0,13.2,1504.0,326.9,0.2,1.0,1475.189,13.11,0.025,146.3
07,2022-07-23T06:00:00,1500.0,42.79,6.0312,0.025,-0.019,-0.001,49.0,53.0,53.0,13.2,1504.0,328.8,-0.1,0.9,1475.174,13.11,0.031,127.2
07,2022-07-23T06:30:00,1500.0,42.79,6.0312,0.02,-0.031,0.0,50.0,54.0,53.0,13.2,1504.1,329.2,0.1,0.7,1475.15,13.12,0.036,147.2
07,2022-07-23T07:00:00,1500.0,42.79,6.0312,0.035,-0.028,0.012,51.0,52.0,53.0,13.2,1504.1,330.4,0.0,1.0,1475.159,13.12,0.044,128.7
07,2022-07-23T07:30:00,1500.0,42.79,6.0312,0.035,-0.015,-0.005,53.0,57.0,52.0,13.2,1504.1,329.4,-0.2,0.8,1475.141,13.12,0.038,113.2
07,2022-07-23T08:00:00,1500.0,42.79,6.0312,0.026,-0.022,0.0,51.0,52.0,52.0,13.2,1504.1,327.8,0.1,1.0,1475.119,13.12,0.034,130.2
07,2022-07-23T08:30:00,1500.0,42.79,6.0312,0.032,-0.018,0.022,51.0,51.0,52.0,13.2,1504.1,330.4,0.2,0.8,1475.118,13.12,0.036,119.4
07,2022-07-23T09:00:00,1500.0,42.79,6.0312,0.037,-0.012,-0.004,51.0,53.0,51.0,13.2,1504.1,329.3,0.1,0.8,1475.131,13.12,0.038,108.0
07,2022-07-23T09:30:00,1500.0,42.79,6.0312,0.033,-0.023,0.008,51.0,52.0,53.0,13.2,1504.1,326.1,-0.1,0.8,1475.113,13.12,0.04,124.9
07,2022-07-23T10:00:00,1500.0,42.79,6.0312,0.024,-0.003,-0.005,50.0,52.0,52.0,13.2,1504.1,326.9,0.4,0.8,1475.129,13.12,0.024,97.1
07,2022-07-23T10:30:00,1500.0,42.79,6.0312,0.035,-0.011,0.02,50.0,51.0,53.0,13.2,1504.1,328.3,0.3,0.7,1475.157,13.12,0.036,107.4
07,2022-07-23T11:00:00,1500.0,42.79,6.0312,0.041,-0.001,0.006,51.0,51.0,51.0,13.2,1504.0,327.7,-0.1,1.0,1475.128,13.11,0.041,91.4
07,2022-07-23T11:30:00,1500.0,42.79,6.0312,0.032,-0.011,0.008,52.0,53.0,52.0,13.2,1504.0,323.3,-0.1,1.0,1475.145,13.11,0.033,109.0
07,2022-07-23T12:00:00,1500.0,42.79,6.0312,0.038,-0.007,0.011,50.0,52.0,51.0,13.2,1504.0,321.6,0.0,0.7,1475.126,13.11,0.038,100.4
07,2022-07-23T12:30:00,1500.0,42.79,6.0312,0.047,-0.02,-0.006,51.0,52.0,51.0,13.2,1504.0,325.7,0.2,0.8,1475.164,13.11,0.051,113.0
07,2022-07-23T13:00:00,1500.0,42.79,6.0312,0.037,-0.018,0.001,51.0,51.0,51.0,13.2,1504.1,323.5,0.4,0.8,1475.167,13.12,0.041,115.9
07,2022-07-23T13:30:00,1500.0,42.79,6.0312,0.029,-0.019,-0.004,51.0,52.0,53.0,13.2,1504.1,321.2,-0.1,0.9,1475.138,13.12,0.034,123.2
07,2022-07-23T14:00:00,1500.0,42.79,6.0312,0.036,-0.009,0.008,51.0,51.0,51.0,13.2,1504.1,325.0,-0.1,0.9,1475.209,13.12,0.037,104.0
07,2022-07-23T14:30:00,1500.0,42.79,6.0312,0.033,-0.023,-0.005,51.0,51.0,51.0,13.2,1504.1,332.9,0.4,0.9,1475.176,13.12,0.04,124.9
07,2022-07-23T15:00:00,1500.0,42.79,6.0312,0.03,-0.026,-0.003,50.0,50.0,51.0,13.2,1504.1,329.9,0.2,0.8,1475.216,13.12,0.039,130.9
07,2022-07-23T15:30:00,1500.0,42.79,6.0312,0.025,-0.02,0.001,51.0,52.0,50.0,13.2,1504.1,327.8,0.0,0.8,1475.214,13.12,0.032,128.7
07,2022-07-23T16:00:00,1500.0,42.79,6.0312,0.037,-0.037,0.002,49.0,52.0,51.0,13.2,1504.1,324.8,-0.3,0.8,1475.235,13.12,0.052,135.0
07,2022-07-23T16:30:00,1500.0,42.79,6.0312,0.035,-0.02,0.0,50.0,52.0,50.0,13.2,1504.1,328.4,0.4,0.9,1475.201,13.12,0.04,119.7
07,2022-07-23T17:00:00,1500.0,42.79,6.0312,0.024,-0.011,0.001,50.0,51.0,51.0,13.2,1504.1,324.4,0.2,0.7,1475.237,13.12,0.026,114.6
07,2022-07-23T17:30:00,1500.0,42.79,6.0312,0.025,-0.033,-0.003,48.0,52.0,51.0,13.2,1504.1,328.0,-0.3,0.8,1475.227,13.12,0.041,142.8
07,2022-07-23T18:00:00,1500.0,42.79,6.0312,0.018,-0.032,0.0,51.0,51.0,51.0,13.2,1504.1,328.3,0.3,0.9,1475.216,13.12,0.036,150.6
07,2022-07-23T18:30:00,1500.0,42.79,6.0312,0.024,-0.024,-0.009,51.0,50.0,50.0,13.2,1504.1,321.4,0.0,0.9,1475.21,13.12,0.033,135.0
07,2022-07-23T19:00:00,1500.0,42.79,6.0312,0.015,-0.022,-0.004,49.0,52.0,50.0,13.2,1504.0,327.6,0.4,0.8,1475.21,13.11,0.026,145.7
07,2022-07-23T19:30:00,1500.0,42.79,6.0312,0.031,-0.019,0.006,50.0,50.0,50.0,13.2,1504.1,324.5,-0.2,1.0,1475.192,13.12,0.036,121.5
07,2022-07-23T20:00:00,1500.0,42.79,6.0312,0.029,-0.028,-0.002,49.0,50.0,51.0,13.2,1504.1,326.0,0.4,0.8,1475.221,13.12,0.04,134.0
07,2022-07-23T20:30:00,1500.0,42.79,6.0312,0.025,-0.022,0.01,51.0,51.0,48.0,13.2,1504.1,323.1,0.0,0.8,1475.187,13.12,0.033,131.3
07,2022-07-23T21:00:00,1500.0,42.79,6.0312,0.031,-0.027,0.004,49.0,48.0,50.0,13.2,1504.1,323.0,0.1,0.8,1475.168,13.12,0.041,131.1
07,2022-07-23T21:30:00,1500.0,42.79,6.0312,0.028,-0.023,0.0,49.0,49.0,50.0,13.2,1504.1,327.6,0.3,1.1,1475.16,13.12,0.036,129.4
07,2022-07-23T22:00:00,1500.0,42.79,6.0312,0.014,-0.015,0.005,49.0,52.0,49.0,13.2,1504.1,325.5,0.1,0.7,1475.153,13.12,0.02,137.0
07,2022-07-23T22:30:00,1500.0,42.79,6.0312,0.021,-0.019,0.013,48.0,50.0,49.0,13.2,1504.1,324.0,-0.1,0.8,1475.188,13.12,0.028,132.1
07,2022-07-23T23:00:00,1500.0,42.79,6.0312,0.03,-0.019,0.021,49.0,49.0,49.0,13.2,1504.1,326.4,0.0,1.1,1475.156,13.12,0.035,122.3
